[TLELIST] Archives

 

[list_settings.list_name] Current TLEs

October 14th 2021 PST

HST 1 20580U 90037B 21286.50396466 .00001128 00000-0 57123-4 0 9996 2 20580 28.4712 3.9052 0002380 252.9049 127.1648 15.09777915528852 ISS (ZARYA) 1 25544U 98067A 21287.29507740 .00003958 00000-0 80863-4 0 9998 2 25544 51.6412 113.7832 0004266 107.3565 66.4092 15.48674491307052 CXO 1 25867U 99040B 21289.75702130 .00000847 00000-0 00000+0 0 9995 2 25867 52.0987 249.9158 8500816 227.5079 0.3448 0.37807560 22031 ____________________________________________________________________ These 2-Line ...Continue Reading

[list_settings.list_name] Current TLEs

October 13th 2021 PST

HST 1 20580U 90037B 21285.53176105 .00001188 00000-0 60769-4 0 9990 2 20580 28.4712 10.3389 0002401 241.6368 243.8382 15.09776415528709 ISS (ZARYA) 1 25544U 98067A 21286.49738653 .00004500 00000-0 90806-4 0 9990 2 25544 51.6410 117.7292 0004180 103.7706 299.7628 15.48669127306938 CXO 1 25867U 99040B 21287.11411159 .00000899 00000-0 00000-0 0 9999 2 25867 52.1449 250.0183 8496716 227.4952 0.5049 0.37810479 10880 ____________________________________________________________________ These 2-Line ...Continue Reading

[list_settings.list_name] Current TLEs

October 12th 2021 PST

HST 1 20580U 90037B 21284.58692596 .00001088 00000-0 54741-4 0 9993 2 20580 28.4712 16.5915 0002426 230.7549 149.1795 15.09774159528562 ISS (ZARYA) 1 25544U 98067A 21285.32480324 .00003610 00000-0 73709-4 0 9994 2 25544 51.6424 123.5204 0004176 83.0409 258.8473 15.48979895306745 CXO 1 25867U 99040B 21287.11411159 .00000899 00000-0 00000-0 0 9999 2 25867 52.1449 250.0183 8496716 227.4952 0.5049 0.37810479 10880 ____________________________________________________________________ These 2-Line ...Continue Reading

[list_settings.list_name] Current TLEs

October 11th 2021 PST

HST 1 20580U 90037B 21283.67869258 .00001069 00000-0 53588-4 0 9990 2 20580 28.4711 22.6019 0002448 220.3319 253.3998 15.09772477528427 ISS (ZARYA) 1 25544U 98067A 21284.19582807 .00002896 00000-0 60788-4 0 9995 2 25544 51.6421 129.1067 0004172 79.9175 82.2919 15.48968166306575 CXO 1 25867U 99040B 21284.47093394 .00000896 00000-0 00000-0 0 9999 2 25867 52.2249 250.1472 8492021 227.4737 0.6288 0.37806917 10885 ____________________________________________________________________ These 2-Line ...Continue Reading

[list_settings.list_name] Current TLEs

October 10th 2021 PST

HST 1 20580U 90037B 21282.69218524 .00001007 00000-0 49814-4 0 9994 2 20580 28.4709 29.1303 0002481 208.9888 292.2721 15.09770609528276 ISS (ZARYA) 1 25544U 98067A 21283.35935438 .00002710 00000-0 57425-4 0 9993 2 25544 51.6429 133.2436 0004120 76.7315 97.9904 15.48961962306443 CXO 1 25867U 99040B 21284.47093394 .00000896 00000-0 00000-0 0 9999 2 25867 52.2249 250.1472 8492021 227.4737 0.6288 0.37806917 10885 ____________________________________________________________________ These 2-Line ...Continue Reading

[list_settings.list_name] Current TLEs

October 9th 2021 PST

HST 1 20580U 90037B 21282.03512844 .00000967 00000-0 47444-4 0 9995 2 20580 28.4709 33.4785 0002498 201.6762 321.2877 15.09769337528447 ISS (ZARYA) 1 25544U 98067A 21281.73004796 .00003128 00000-0 65029-4 0 9990 2 25544 51.6444 141.3023 0004210 71.7185 11.5978 15.48952913306193 CXO 1 25867U 99040B 21284.47041675 .00000896 00000-0 00000-0 0 9994 2 25867 52.2249 250.1473 8492025 227.4736 0.5588 0.37806866 10873 ____________________________________________________________________ These 2-Line ...Continue Reading

[list_settings.list_name] Current TLEs

October 8th 2021 PST

HST 1 20580U 90037B 21280.77208021 .00000992 00000-0 48916-4 0 9996 2 20580 28.4707 41.8371 0002559 187.8386 296.6382 15.09767402528250 ISS (ZARYA) 1 25544U 98067A 21281.22625978 .00003350 00000-0 69068-4 0 9999 2 25544 51.6434 143.7971 0004082 68.7062 83.5236 15.48951992306111 CXO 1 25867U 99040B 21284.46907424 .00000896 00000-0 00000+0 0 9995 2 25867 52.2245 250.1475 8492040 227.4733 0.3759 0.37806056 22013 ____________________________________________________________________ These 2-Line ...Continue Reading

[list_settings.list_name] Current TLEs

October 7th 2021 PST

HST 1 20580U 90037B 21279.77960531 .00000961 00000-0 47036-4 0 9993 2 20580 28.4706 48.4050 0002604 177.1755 302.3459 15.09765498527835 ISS (ZARYA) 1 25544U 98067A 21280.32316285 .00003017 00000-0 63041-4 0 9992 2 25544 51.6448 148.2619 0004154 67.0682 85.9790 15.48942397305978 CXO 1 25867U 99040B 21281.82691144 .00000946 00000-0 00000-0 0 9998 2 25867 52.2969 250.2628 8488269 227.4723 0.6175 0.37807575 10866 ____________________________________________________________________ These 2-Line ...Continue Reading

[list_settings.list_name] Current TLEs

October 6th 2021 PST

HST 1 20580U 90037B 21278.44376608 .00001008 00000-0 49892-4 0 9997 2 20580 28.4704 57.2452 0002659 162.9539 241.6824 15.09763443527636 ISS (ZARYA) 1 25544U 98067A 21279.42355231 .00001706 00000-0 39223-4 0 9993 2 25544 51.6448 152.7129 0004231 63.8535 109.4859 15.48933243305834 CXO 1 25867U 99040B 21279.18173032 .00001054 00000-0 00000-0 0 9996 2 25867 52.3919 250.4236 8487795 227.4311 0.4970 0.37816563 10852 ____________________________________________________________________ These 2-Line ...Continue Reading

[list_settings.list_name] Current TLEs

October 5th 2021 PST

HST 1 20580U 90037B 21277.66335100 .00001014 00000-0 50282-4 0 9994 2 20580 28.4703 62.4099 0002690 154.8291 319.7273 15.09762154527510 ISS (ZARYA) 1 25544U 98067A 21278.39008522 .00004186 00000-0 84290-4 0 9995 2 25544 51.6450 157.8229 0004105 60.1740 106.6011 15.48932263305674 CXO 1 25867U 99040B 21279.18173032 .00001054 00000-0 00000-0 0 9996 2 25867 52.3919 250.4236 8487795 227.4311 0.4970 0.37816563 10852 ____________________________________________________________________ These 2-Line ...Continue Reading
  • This mailing list is a public mailing list - anyone may join or leave, at any time.
  • This mailing list is announce-only.

International Space Station (ISS) / Hubble Space Telescope (HST) / Chandra X-Ray Observatory Orbital Data via EMAIL

Privacy Policy:

Private list